Regional Weather Roundup
Issued by NWS

Home | Current Version | Previous Version | Graphics & Text | Print | Product List | Glossary On
Versions: 1 2 3 4 5 6 7 8 9 10 11 12 13 14 15 16 17 18 19 20 21 22 23 24 25 26 27 28 29 30 31 32 33 34 35 36 37 38 39 40 41 42 43 44 45 46 47 48 49 50
000
ASUS45 KSLC 211810
RWRUT

UTAH REGIONAL WEATHER ROUNDUP
NATIONAL WEATHER SERVICE SALT LAKE CITY UT
1200 PM MDT SUN MAY 21 2017

UTZ001>011-023>025-211900-

NORTHERN UTAH

CITY           SKY/WX    TMP DP  RH WIND       PRES   REMARKS
BRIGHAM CITY   CLOUDY    57  44  62 CALM      30.22S
HILL AFB       LGT RAIN  50  46  87 E9        30.24R
LOGAN          CLOUDY    60  45  57 VRB5      30.21S
OGDEN          CLOUDY    54  44  69 S8        30.21R
SALT LAKE CITY LGT RAIN  54  50  86 E5        30.21S
TOOELE VALLEY  CLOUDY    54  48  82 CALM      30.21S
WENDOVER       PTSUNNY   62  42  47 NE12G18   30.20R
HEBER CITY     PTSUNNY   55  41  58 E3        30.21F
WEST JORDAN    CLOUDY    55  55 100 CALM      30.22S

$$

UTZ011>015-024>027-211900-

CENTRAL/NORTHEAST UTAH

CITY           SKY/WX    TMP DP  RH WIND       PRES   REMARKS
PROVO AIRPORT  CLOUDY    57  45  64 S8        30.22R
MOAB/CANYONLAN PTSUNNY   68  26  20 NW7       30.15R
DELTA          PTSUNNY   61  36  39 NE14      30.17S
PRICE          CLOUDY    60  37  42 N14       30.22S
RICHFIELD      MOSUNNY   63  34  34 N6        30.19F
ROOSEVELT      CLOUDY    59  37  44 W14       30.23S
VERNAL         CLOUDY    58  33  39 SW5       30.20S

$$

UTZ013>016-019>022-027-211900-

SOUTHERN UTAH

CITY           SKY/WX    TMP DP  RH WIND       PRES   REMARKS
BRYCE CANYON   PTSUNNY   59  29  31 SE10      30.26F
CEDAR CITY     MOSUNNY   73  27  18 SW13      30.15S
MILFORD        MOSUNNY   67  34  29 NE12      30.17S
ST GEORGE      MOCLDY    75  34  22 CALM      30.04F
HANKSVILLE     PTSUNNY   68  25  19 CALM      30.17F
KANAB          MOSUNNY   73  28  19 S7        30.17F
BLANDING       SUNNY     66  25  21 S8        30.27F

$$

REGIONAL REPORTS     COLORADO/ARIZONA

CITY           SKY/WX    TMP DP  RH WIND       PRES   REMARKS
CRAIG, CO      CLOUDY    59  29  31 VRB5      30.21F
GRAND JUNCTION PTSUNNY   65  29  25 VRB3      30.17F
RIFLE, CO      CLOUDY    64  26  23 W6        30.19F
MONTROSE, CO   SUNNY     63  27  25 N7        30.21F
CORTEZ, CO     SUNNY     66  28  24 S7        30.20F
COLORADO CITY    N/A     79  30  17 E5        30.16F
PAGE, AZ       SUNNY     71  30  21 NE5       30.13S
GRAND CANYON   MOSUNNY   69  26  20 VRB5      30.23F
KINGMAN, AZ    SUNNY     86  24  10 CALM      30.04F
FLAGSTAFF, AZ  SUNNY     66  19  16 E8        30.25S

$$

REGIONAL REPORTS    NEVADA/IDAHO/WYOMING

CITY           SKY/WX    TMP DP  RH WIND       PRES   REMARKS
LAS VEGAS, NV  MOSUNNY   85  26  11 E5        29.96F
ELY, NY        SUNNY     65  30  27 N12G17    30.22S
ELKO, NV       MOSUNNY   65  38  36 SE7       30.21S
POCATELLO, ID  MOSUNNY   63  42  46 N13G18    30.24S
BURLEY, ID     SUNNY     60  46  59 E8G16     30.23R
FORT BRIDGER,  MOCLDY    55  37  49 N6        30.27F
EVANSTON, WY     N/A     52  37  56 MISG      30.25S
ROCK SPRINGS,  PTSUNNY   54  36  50 VRB3      30.23S
KEMMERER, WY   DRIZZLE   50  37  62 E8        30.26S

$$



USA.gov is the U.S. government's official web portal to all federal, state and local government web resources and services.